EN

Hourly Weather Pakuly

Today, 21 April, Wednesday

Time Temperature Precipitation Wind Pressure Humidity
00:00 +7°C° 0 mm 2 mps 733 mmHg 78%
01:00 +7°C° 0 mm 2 mps 733 mmHg 82%
02:00 +6°C° 0.1 mm 2 mps 733 mmHg 84%
03:00 +6°C° 0.1 mm 2 mps 733 mmHg 87%
04:00 +6°C° 0.1 mm 2 mps 733 mmHg 89%
05:00 +7°C° 0.1 mm 3 mps 733 mmHg 84%
06:00 +8°C° 0.1 mm 3 mps 733 mmHg 79%
07:00 +9°C° 0 mm 3 mps 733 mmHg 74%
08:00 +10°C° 0.3 mm 3 mps 733 mmHg 69%
09:00 +12°C° 0.3 mm 4 mps 733 mmHg 63%
10:00 +13°C° 0.3 mm 4 mps 733 mmHg 57%
11:00 +14°C° 0.2 mm 4 mps 733 mmHg 53%
12:00 +14°C° 0.2 mm 5 mps 733 mmHg 48%
13:00 +15°C° 0.2 mm 5 mps 733 mmHg 43%
14:00 +15°C° 0 mm 5 mps 733 mmHg 45%
15:00 +14°C° 0 mm 4 mps 732 mmHg 47%
16:00 +14°C° 0 mm 4 mps 732 mmHg 48%
17:00 +13°C° 0 mm 3 mps 732 mmHg 55%
18:00 +11°C° 0 mm 3 mps 732 mmHg 62%
19:00 +10°C° 0 mm 2 mps 732 mmHg 68%
20:00 +10°C° 0.1 mm 2 mps 733 mmHg 71%
21:00 +9°C° 0.1 mm 2 mps 733 mmHg 73%
22:00 +9°C° 0.1 mm 2 mps 733 mmHg 75%
23:00 +9°C° 0 mm 2 mps 733 mmHg 78%

Tomorrow, 22 April, Thursday

Time Temperature Precipitation Wind Pressure Humidity
00:00 +8°C° 0 mm 3 mps 733 mmHg 80%
01:00 +7°C° 0 mm 3 mps 733 mmHg 83%
02:00 +7°C° 0 mm 3 mps 733 mmHg 85%
03:00 +5°C° 0 mm 3 mps 733 mmHg 88%
04:00 +4°C° 0 mm 3 mps 733 mmHg 90%
05:00 +4°C° 0.3 mm 3 mps 734 mmHg 89%
06:00 +4°C° 0.3 mm 4 mps 734 mmHg 88%
07:00 +2°C° 0.3 mm 5 mps 735 mmHg 88%
08:00 +3°C° 0.1 mm 5 mps 735 mmHg 78%
09:00 +3°C° 0.1 mm 5 mps 736 mmHg 68%
10:00 +5°C° 0.1 mm 5 mps 736 mmHg 58%
11:00 +5°C° 0 mm 6 mps 736 mmHg 52%
12:00 +7°C° 0 mm 6 mps 736 mmHg 47%
13:00 +8°C° 0 mm 7 mps 736 mmHg 41%
14:00 +6°C° 0 mm 7 mps 736 mmHg 43%
15:00 +6°C° 0 mm 7 mps 736 mmHg 45%
16:00 +6°C° 0 mm 7 mps 736 mmHg 47%
17:00 +4°C° 0 mm 6 mps 736 mmHg 52%
18:00 +3°C° 0 mm 5 mps 737 mmHg 57%
19:00 +3°C° 0 mm 4 mps 737 mmHg 63%
20:00 +3°C° 0 mm 3 mps 737 mmHg 66%
21:00 +2°C° 0 mm 3 mps 737 mmHg 70%
22:00 +1°C° 0 mm 3 mps 737 mmHg 74%
23:00 +1°C° 0 mm 3 mps 737 mmHg 77%

Day after tomorrow, 23 April, Friday

Time Temperature Precipitation Wind Pressure Humidity
00:00 +1°C° 0 mm 3 mps 737 mmHg 79%
01:00 0°C° 0 mm 3 mps 738 mmHg 82%
02:00 0°C° 0 mm 3 mps 738 mmHg 84%
03:00 -1°C° 0 mm 3 mps 738 mmHg 87%
04:00 -1°C° 0 mm 3 mps 738 mmHg 90%
05:00 0°C° 0 mm 3 mps 738 mmHg 81%
06:00 0°C° 0 mm 4 mps 738 mmHg 72%
07:00 +3°C° 0 mm 4 mps 739 mmHg 63%
08:00 +3°C° 0.1 mm 5 mps 738 mmHg 62%
09:00 +4°C° 0.1 mm 6 mps 738 mmHg 60%
10:00 +5°C° 0.1 mm 7 mps 738 mmHg 59%
11:00 +5°C° 0.3 mm 7 mps 738 mmHg 60%
12:00 +4°C° 0.3 mm 8 mps 739 mmHg 62%
13:00 +4°C° 0.3 mm 8 mps 739 mmHg 64%
14:00 +4°C° 0.1 mm 8 mps 739 mmHg 63%
15:00 +4°C° 0.1 mm 8 mps 739 mmHg 63%
16:00 +4°C° 0.1 mm 8 mps 739 mmHg 63%
17:00 +3°C° 0.1 mm 6 mps 739 mmHg 65%
18:00 +3°C° 0.1 mm 4 mps 739 mmHg 67%
19:00 +2°C° 0.1 mm 3 mps 739 mmHg 69%
20:00 +2°C° 0 mm 3 mps 740 mmHg 68%
21:00 +2°C° 0 mm 3 mps 740 mmHg 68%
22:00 +2°C° 0 mm 3 mps 740 mmHg 67%
23:00 +1°C° 0 mm 3 mps 740 mmHg 72%

24 April, Saturday

Time Temperature Precipitation Wind Pressure Humidity
00:00 0°C° 0 mm 3 mps 740 mmHg 77%
01:00 0°C° 0 mm 3 mps 740 mmHg 82%
02:00 -1°C° 0 mm 3 mps 741 mmHg 85%
03:00 -1°C° 0 mm 3 mps 741 mmHg 89%
04:00 -2°C° 0 mm 3 mps 741 mmHg 92%
05:00 0°C° 0 mm 3 mps 741 mmHg 79%
06:00 +1°C° 0 mm 3 mps 741 mmHg 66%
07:00 +1°C° 0 mm 4 mps 741 mmHg 53%
08:00 +4°C° 0 mm 4 mps 741 mmHg 47%
09:00 +5°C° 0 mm 4 mps 741 mmHg 41%
10:00 +6°C° 0 mm 4 mps 741 mmHg 35%
11:00 +7°C° 0 mm 4 mps 741 mmHg 38%
12:00 +7°C° 0 mm 4 mps 740 mmHg 42%
13:00 +7°C° 0 mm 5 mps 740 mmHg 45%
14:00 +7°C° 0.3 mm 5 mps 740 mmHg 54%
15:00 +6°C° 0.3 mm 5 mps 740 mmHg 63%
16:00 +5°C° 0.3 mm 5 mps 740 mmHg 72%
17:00 +4°C° 0.1 mm 4 mps 740 mmHg 76%
18:00 +4°C° 0.1 mm 3 mps 740 mmHg 81%
19:00 +4°C° 0.1 mm 2 mps 740 mmHg 85%
20:00 +3°C° 0.1 mm 2 mps 740 mmHg 86%
21:00 +3°C° 0.1 mm 2 mps 740 mmHg 87%
22:00 +3°C° 0.1 mm 2 mps 740 mmHg 88%
23:00 +3°C° 0 mm 2 mps 740 mmHg 87%

25 April, Sunday

Time Temperature Precipitation Wind Pressure Humidity
00:00 +1°C° 0 mm 3 mps 741 mmHg 87%
01:00 +1°C° 0 mm 3 mps 741 mmHg 87%
02:00 +1°C° 0 mm 3 mps 741 mmHg 87%
03:00 0°C° 0 mm 3 mps 741 mmHg 87%
04:00 +1°C° 0 mm 2 mps 741 mmHg 87%
05:00 0°C° 0 mm 3 mps 742 mmHg 80%
06:00 +1°C° 0 mm 3 mps 742 mmHg 73%
07:00 +1°C° 0 mm 3 mps 742 mmHg 65%
08:00 +3°C° 0 mm 3 mps 742 mmHg 57%
09:00 +4°C° 0 mm 4 mps 742 mmHg 49%
10:00 +5°C° 0 mm 4 mps 742 mmHg 40%
11:00 +6°C° 0 mm 4 mps 742 mmHg 39%
12:00 +7°C° 0 mm 5 mps 742 mmHg 37%
13:00 +7°C° 0 mm 5 mps 741 mmHg 35%
14:00 +7°C° 0 mm 5 mps 741 mmHg 36%
15:00 +7°C° 0 mm 5 mps 741 mmHg 37%
16:00 +7°C° 0 mm 5 mps 740 mmHg 38%
17:00 +6°C° 0 mm 4 mps 740 mmHg 44%
18:00 +5°C° 0 mm 3 mps 740 mmHg 49%
19:00 +4°C° 0 mm 3 mps 740 mmHg 55%
20:00 +4°C° 0 mm 2 mps 741 mmHg 58%
21:00 +3°C° 0 mm 2 mps 741 mmHg 62%
22:00 +4°C° 0 mm 1 mps 741 mmHg 65%
23:00 +3°C° 0 mm 1 mps 741 mmHg 65%

26 April, Monday

Time Temperature Precipitation Wind Pressure Humidity
00:00 +3°C° 0 mm 1 mps 740 mmHg 65%
01:00 +1°C° 0 mm 0 mps 740 mmHg 65%
02:00 +2°C° 0 mm 1 mps 740 mmHg 65%
03:00 +2°C° 0 mm 1 mps 740 mmHg 65%
04:00 +2°C° 0 mm 1 mps 740 mmHg 65%
05:00 +3°C° 0 mm 1 mps 740 mmHg 62%
06:00 +4°C° 0 mm 1 mps 740 mmHg 58%
07:00 +6°C° 0 mm 1 mps 740 mmHg 54%
08:00 +7°C° 0 mm 1 mps 740 mmHg 48%
09:00 +9°C° 0 mm 1 mps 740 mmHg 42%
10:00 +11°C° 0 mm 1 mps 739 mmHg 36%
11:00 +11°C° 0 mm 1 mps 739 mmHg 34%
12:00 +12°C° 0 mm 1 mps 738 mmHg 31%
13:00 +13°C° 0 mm 2 mps 738 mmHg 29%
14:00 +13°C° 0 mm 2 mps 737 mmHg 29%
15:00 +13°C° 0 mm 2 mps 736 mmHg 29%
16:00 +14°C° 0 mm 2 mps 736 mmHg 29%
17:00 +11°C° 0 mm 3 mps 736 mmHg 37%
18:00 +9°C° 0 mm 3 mps 735 mmHg 46%
19:00 +8°C° 0 mm 3 mps 735 mmHg 54%
20:00 +7°C° 0 mm 3 mps 735 mmHg 55%
21:00 +5°C° 0 mm 4 mps 734 mmHg 56%
22:00 +5°C° 0 mm 4 mps 734 mmHg 57%
23:00 +4°C° 0 mm 3 mps 734 mmHg 59%
Show more

We Need Your Consent

Meteoprog and our Service Providers may store and access personal data such as cookies, device identifiers or other similar technologies on your device and process such data to personalise content and ads, as well as provide social media features and to analyse the traffic.

  • Store and/or access information on your device

    Cookies, device identifiers or other information can be stored or accessed on your device for the purposes indicated above.

  • Personalised ads and content, ad and content measurement, audience insights, and products development

    Ads and content can be personalised based on a profile. More data can be added to better personalise ads and content. Ad and content performance can be measured. Insights about the audience who saw the ads and content can be derived. Such data can be used to develop or improve user’s experience, systems and software.

By clicking ‘I Agree’ you will allow the use of indicated cookies, device identifiers, web beacons or other similar technologies. Your settings can be changed in the browser on your device.

For certain purposes, legitimate interests may be relied on, rather than consent. You can read more about this in our Privacy and Cookie Policy.